Regional Weather Roundup
Issued by NWS

Home | Current Version | Previous Version | Text Only | Print | Product List | Glossary Off
Versions: 1 2 3 4 5 6 7 8 9 10 11 12 13 14 15 16 17 18 19 20 21 22 23 24 25 26 27 28 29 30 31 32 33 34 35 36 37 38 39 40 41 42 43 44 45 46 47 48 49 50

055
ASUS43 KBIS 120302
RWRND

NORTH DAKOTA REGIONAL WEATHER ROUNDUP
NATIONAL WEATHER SERVICE BISMARCK ND
900 PM CST THU FEB 11 2016

NOTE: "FAIR" INDICATES FEW OR NO CLOUDS BELOW 12,000 FEET WITH NO
SIGNIFICANT WEATHER AND/OR OBSTRUCTIONS TO VISIBILITY.


NDZ001>003-009>011-017-120400-
NORTHWEST NORTH DAKOTA

CITY           SKY/WX    TMP DP  RH WIND       PRES   REMARKS
WILLISTON      LGT SNOW  21  16  81 N5        30.30R WCI  15
MINOT          CLOUDY    17   9  70 NW5       30.27S WCI  10
MINOT AFB      CLOUDY    13  11  92 CALM      30.27R
$$

NDZ018>021-031>035-040>046-120400-
SOUTHWEST NORTH DAKOTA

CITY           SKY/WX    TMP DP  RH WIND       PRES   REMARKS
BISMARCK       CLOUDY    22  15  75 N9        30.28S WCI  12
DICKINSON      CLOUDY    23  19  85 N7        30.21R WCI  15
GARRISON         N/A     16  12  84 CALM      30.26S
HETTINGER ARPT CLOUDY    23  19  85 N3        30.23S
$$

NDZ004>008-012>016-024-026-027-054-120400-
NORTHEAST NORTH DAKOTA

CITY           SKY/WX    TMP DP  RH WIND       PRES   REMARKS
GRAND FORKS    CLOUDY    12   5  73 N10       30.30R WCI  -1
GRND FRKS AFB  FLURRIES  11   5  75 N7        30.30R WCI   0
DEVILS LAKE    FLURRIES   9   6  88 W6        30.28S WCI  -1
$$

NDZ022-023-025-028>030-036>039-047>053-120400-
SOUTHEAST NORTH DAKOTA

CITY           SKY/WX    TMP DP  RH WIND       PRES   REMARKS
FARGO          CLOUDY    13   7  77 NW7       30.28S WCI   3
JAMESTOWN      CLOUDY    10   6  84 N9        30.26R WCI  -3
$$





USA.gov is the U.S. government's official web portal to all federal, state and local government web resources and services.